Tracking 31027 objects as of 19-Jul-2025
HD Live streaming from Space Station
objects crossing your sky now

SCOUT X-4 R/B

Track SCOUT X-4 R/B now!
10-day predictions


NORAD ID: 1739
Int'l Code: 1965-093B
Perigee: 665.9 km
Apogee: 769.4 km
Inclination: 59.7 °
Period: 99.0 minutes
Semi major axis: 7088 km
RCS: 0.5409 m2 (medium)
Launch date: November 19, 1965
Source: United States (US)
Launch site: WALLOPS ISLAND (WLPIS)

Note: This is a ROCKET BODY
Your satellite tracking list
DEWASAT-2
Track 1 satellite(s)




NASA's NSSDC Master Catalog

Two Line Element Set (TLE):
1 01739U 65093B   25199.54149912  .00000240  00000-0  90890-4 0  9990
2 01739  59.7048 294.6051 0073046 312.5196  46.9693 14.54651529121776
Source of the keplerian elements: AFSPC